EHI
0 0 0 0 0 0 0 0 0 0 0 0 0 0 0 0 0 0 0 0 0 0 0 0 0 0 0 0 0 0 0 0 0 0 0 0 0 0 0 0 0 0 0 0
0 0 0 0 0 0 0 0 0 0 0 0 0 0 0 0 0 0 0 0 0 0 0 0 0 0 0 0 0 0 0 0 0 0 0 0 0 0 0 0 0 0 0 0
0 0 0 0 0 0 0 0 0 0 0 0 0 0 0 0 0 0 0 0 0 0 0 0 0 0 0 0 0 0 0 0 0 0 0 0 0 0 0 0 0 0 0 0
0 0 0 0 0 0 0 0 0 0 0 0 0 0 0 0 0 0 0 0 0 0 0 0 0 0 0 0 0 0 0 0 0 0 0 0 0 0 0 0 0 0 0 0
0 0 0 0 0 0 0 0 0 0 0 0 0 0 0 0 0 0 0 0 0 0 0 0 0 0 0 0 0 0 0 0 0 0 0 0 0 0 0 0 0 0 0 0
0 0 0 0 0 0 0 0 0 0 0 0 0 0 0 0 0 0 0 0 0 0 0 0 0 0 0 0 0 0 0 0 0 0 0 0 0 0 0 0 0 0 0 0
0 0 0 0 0 0 0 0 0 0 0 0 0 0 0 0 0 0 0 0 0 0 0 0 0 0 0 0 0 0 0 0 0 0 0 0 0 0 0 0 0 0 0 0
0 0 0 0 0 0 0 0 0 0 0 0 0 0 0 0 0 0 0 0 0 0 0 0 0 0 0 0 0 0 0 0 0 0 0 0 0 0 0 0 0 0 0 0
0 0 0 0 0 0 0 0 0 0 0 0 0 0 0 0 0 0 0 0 0 0 0 0 0 0 0 0 0 0 0 0 0 0 0 0 0 0 0 0 0 0 0 0
0 0 0 0 0 0 0 0 0 0 0 0 0 0 0 0 0 0 0 0 0 0 0 0 0 0 0 0 0 0 0 0 0 0 0 0 0 0 0 0 0 0 0 0
0 0 0 0 0 0 0 0 0 0 0 0 0 0 0 0 0 0 0 0 0 0 0 0 0 0 0 0 0 0 0 0 0 0 0 0 0 0 0 0 0 0 0 0
0 0 0 0 0 0 0 0 0 0 0 0 0 0 0 0 0 0 0 0 0 0 0 0 0 0 0 0 0 0 0 0 0 0 0 0 0 0 0 0 0 0 0 0
0 0 0 0 0 0 0 0 0 0 0 0 0 0 0 0 0 0 0 0 0 0 0 0 0 0 0 0 0 0 0 0 0 0 0 0 0 0 0 0 0 0 0 0
0 0 0 0 0 0 0 0 0 0 0 0 0 0 0 0 0 0 0 0 0 0 0 0 0 0 0 0 0 0 0 0 0 0 0 0 0 0 0 0 0 0 0 0
0 0 0 0 0 0 0 0 0 0 0 0 0 0 0 0 0 0 0 0 0 0 0 0 0 0 0 0 0 0 0 0 0 0 0 0 0 0 0 0 0 0 0 0
0 0 0 0 0 0 0 0 0 0 0 0 0 0 0 0 0 0 0 0 0 0 0 0 0 0 0 0 0 0 0 0 0 0 0 0 0 0 0 0 0 0 0 0
0 0 0 0 0 0 0 0 0 0 0 0 0 0 0 0 0 0 0 0 0 0 0 0 0 0 0 0 0 0 0 0 0 0 0 0 0 0 0 0 0 0 0 0
0 0 0 0 0 0 0 0 0 0 0 0 0 0 0 0 0 0 0 0 0 0 0 0 0 0 0 0 0 0 0 0 0 0 0 0 0 0 0 0 0 0 0 0
0 0 0 0 0 0 0 0 0 0 0 0 0 0 0 0 0 0 0 0 0 0 0 0 0 0 0 0 0 0 0 0 0 0 0 0 0 0 0 0 0 0 0 0
0 0 0 0 0 0 0 0 0 0 0 0 0 0 0 0 0 0 0 0 0 0 0 0 0 0 0 0 0 0 0 0 0 0 0 0 0 0 0 0 0 0 0 0
0 0 0 0 0 0 0 0 0 0 0 0 0 0 0 0 0 0 0 0 0 0 0 0 0 0 0 0 0 0 0 0 0 0 0 0 0 0 0 0 0 0 0 0
0 0 0 0 0 0 0 0 0 0 0 0 0 0 0 0 0 0 0 0 0 0 0 0 0 0 0 0 0 0 0 0 0 0 0 0 0 0 0 0 0 0 0 0
0 0 0 0 0 0 0 0 0 0 0 0 0 0 0 0 0 0 0 0 0 0 0 0 0 0 0 0 0 0 0 0 0 0 0 0 0 0 0 0 0 0 0 0
0 0 0 0 0 0 0 0 0 0 0 0 0 0 0 0 0 0 0 0 0 0 0 0 0 0 0 0 0 0 0 0 0 0 0 0 0 0 0 0 0 0 0 0
0 0 0 0 0 0 0 0 0 0 0 0 0 0 0 0 0 0 0 0 0 0 0 0 0 0 0 0 0 0 0 0 0 0 0 0 0 0 0 0 0 0 0 0
0 0 0 0 0 0 0 0 0 0 0 0 0 0 0 0 0 0 0 0 0 0 0 0 0 0 0 0 0 0 0 0 0 0 0 0 0 0 0 0 0 0 0 0
0 0 0 0 0 0 0 0 0 0 0 0 0 0 0 0 0 0 0 0 0 0 0 0 0 0 0 0 0 0 0 0 0 0 0 0 0 0 0 0 0 0 0 0
Wind_Speed
3 3 2 1 1 1 2 4 5 4 5 6 7 8 9 10 10 10 10 10 9 9 8 8 8 8 8 9 8 9 9 9 8 7 7 7 7 6 6 6 6 5 6 6
2 2 1 0 2 1 0 1 3 5 3 5 8 8 9 10 11 10 10 10 10 9 9 8 8 8 8 8 7 7 8 7 6 6 7 6 6 5 6 5 5 5 5 5
2 3 2 2 2 1 1 1 3 3 4 9 9 9 9 9 10 10 11 10 9 8 8 7 7 7 7 6 6 6 6 6 5 6 6 5 5 5 5 4 4 4 4 4
1 2 2 4 1 3 4 2 1 4 8 8 8 7 6 7 10 11 11 10 9 8 8 7 6 6 6 6 6 6 5 5 4 4 4 4 4 4 3 2 3 2 2 3
3 1 3 2 1 3 4 1 3 8 10 10 11 9 6 6 8 10 10 9 8 8 7 7 7 6 7 6 5 5 4 4 3 4 4 3 3 2 2 2 2 2 2 2
3 2 4 4 1 3 4 0 4 9 11 11 7 5 4 7 10 11 10 9 8 8 8 7 5 6 7 5 5 4 3 3 3 3 3 3 2 2 1 1 2 2 2 2
3 2 5 2 1 3 2 5 6 8 10 8 3 4 9 11 10 10 10 9 8 8 7 6 5 6 6 5 4 3 3 4 3 3 3 3 2 2 2 2 3 3 3 2
4 2 5 1 2 3 4 3 7 8 7 7 9 11 12 12 11 11 10 9 8 7 6 4 5 6 6 4 3 3 4 4 3 3 3 3 3 3 3 3 3 3 2 2
5 5 2 2 1 1 4 7 6 7 9 12 12 12 12 11 11 10 9 8 6 8 6 4 4 5 6 3 3 4 4 4 3 3 3 3 3 3 3 3 2 2 1 1
2 1 2 3 3 4 5 6 8 10 12 12 13 13 12 11 10 9 8 7 6 7 7 4 4 4 4 3 3 4 3 3 2 3 3 3 3 2 2 2 2 1 1 1
2 2 3 3 4 6 9 11 12 11 10 12 15 14 12 11 10 8 7 6 6 7 6 5 4 3 3 3 4 4 3 2 2 2 2 2 2 1 1 1 2 2 1 1
7 8 6 5 5 7 11 11 12 13 11 10 12 13 11 10 8 8 7 6 6 6 5 4 4 3 2 2 3 3 2 1 1 1 1 1 1 1 1 0 1 2 3 3
6 7 7 10 8 7 9 10 11 12 12 12 10 11 10 9 7 7 7 7 7 6 5 4 3 2 1 2 3 3 2 1 1 1 2 1 1 1 1 2 2 1 2 3
12 12 9 7 7 8 11 12 11 11 11 11 10 10 10 8 7 8 7 6 6 5 4 3 3 2 2 2 3 2 2 2 2 1 2 2 2 1 1 0 1 2 2 2
6 8 11 11 12 11 12 13 13 11 10 9 9 10 9 9 8 6 5 5 5 4 3 3 3 2 1 2 3 2 2 1 1 1 1 1 1 1 1 1 0 1 2 2
11 14 15 15 14 13 12 13 12 11 10 9 8 8 8 8 7 6 5 6 5 4 3 3 3 2 2 2 3 2 1 2 2 2 1 1 1 1 1 1 0 0 1 1
16 14 14 15 14 13 11 11 12 11 10 10 9 8 8 8 6 5 4 4 4 4 3 3 3 2 2 3 3 2 1 1 2 2 1 2 2 2 1 1 1 0 1 1
13 15 16 17 16 14 12 11 11 11 10 9 10 9 8 8 6 5 4 4 3 2 1 2 2 2 2 2 3 2 2 2 2 2 1 2 2 2 2 1 1 0 0 1
13 14 14 14 14 13 12 11 10 10 9 10 10 8 7 6 6 5 4 4 4 3 3 2 3 2 2 2 3 2 2 2 1 1 2 2 2 2 1 1 1 1 0 0
12 14 14 13 12 12 12 11 11 10 9 9 9 8 6 5 5 5 5 4 4 4 3 3 3 2 2 2 3 2 2 2 2 2 2 2 2 2 1 1 1 1 1 1
15 15 15 14 12 11 12 12 12 10 9 10 10 9 7 5 5 5 4 3 3 3 3 4 3 2 2 2 3 2 2 2 2 2 2 3 2 2 2 2 1 1 1 1
15 14 15 14 13 11 10 10 11 11 10 9 8 8 7 6 5 4 3 4 3 4 4 3 2 3 3 3 2 2 2 2 2 2 3 3 3 3 2 2 2 2 2 2
13 13 14 14 14 12 10 10 11 11 10 10 9 9 7 6 5 5 4 3 3 5 4 3 4 5 4 3 2 2 2 2 2 3 3 3 3 3 3 3 3 2 2 2
13 13 13 12 12 12 11 10 9 9 9 9 8 8 7 5 4 4 3 4 6 6 4 4 6 6 4 2 2 2 2 2 3 3 3 3 3 3 3 3 3 3 3 3
13 12 12 14 13 11 11 10 9 8 8 6 6 7 6 6 5 5 4 5 6 6 4 5 7 6 4 3 3 3 3 3 3 3 4 4 4 4 4 4 4 4 3 4
12 12 12 12 10 9 9 9 8 7 7 6 5 5 5 4 4 4 4 5 6 6 5 3 4 5 4 4 4 4 3 3 4 4 4 4 5 5 4 5 6 4 4 4
10 9 8 7 6 8 9 9 9 8 8 8 6 6 6 5 5 5 5 4 4 5 4 4 4 4 4 4 4 4 4 4 4 4 4 5 5 5 5 7 5 5 4 4
Wind_Direction
243 255 223 250 290 174 191 201 188 200 165 166 155 145 137 132 127 124 122 117 113 108 102 97 93 88 87 87 86 88 88 85 84 85 84 82 80 81 82 82 84 80 76 66
321 322 203 276 335 6 112 121 119 117 116 119 120 122 132 137 137 134 129 122 118 115 111 106 102 98 92 91 90 92 93 92 90 87 84 82 83 83 82 80 77 74 70 64
274 317 24 296 284 181 105 85 154 172 155 136 132 139 144 145 140 134 129 124 122 119 114 110 106 105 101 99 95 93 94 94 93 94 91 89 92 88 85 83 83 79 69 61
116 38 247 258 293 130 114 66 93 116 128 133 125 116 111 127 134 133 131 128 122 117 113 107 105 104 103 101 99 96 93 95 98 99 96 92 90 88 83 81 85 84 76 60
118 150 286 274 188 152 134 96 117 129 125 116 114 98 89 108 123 128 127 125 122 119 115 111 110 112 109 104 103 102 103 107 111 111 106 99 93 87 83 90 90 91 88 72
128 158 240 250 239 154 111 185 149 141 141 142 136 132 142 132 123 123 122 122 122 117 111 109 113 116 112 111 110 112 118 115 109 109 110 105 93 78 77 99 102 101 86 68
148 202 261 266 183 134 165 237 156 149 149 148 136 135 133 130 124 124 122 120 119 116 114 117 119 116 115 113 115 117 107 101 96 96 101 98 85 67 78 86 87 80 75 55
148 192 255 331 126 167 199 122 128 133 134 121 115 118 125 128 127 127 122 119 118 115 110 110 119 120 118 121 120 105 99 91 82 75 78 89 89 74 70 87 88 77 67 44
175 202 257 355 85 85 126 122 125 130 127 127 126 130 129 129 129 127 124 120 116 119 113 106 119 127 126 133 117 104 92 85 79 76 72 83 94 89 73 74 88 84 73 43
119 81 60 54 64 68 94 112 121 129 131 132 132 135 131 130 128 125 121 122 122 120 119 115 115 119 126 127 119 110 97 90 94 91 80 68 72 86 97 99 99 98 87 42
124 141 104 56 84 104 99 105 111 114 122 132 133 134 134 133 132 129 124 121 122 125 127 128 123 116 121 127 124 113 103 94 90 91 103 93 76 82 121 173 182 160 171 189
195 185 156 151 137 125 117 119 123 119 114 121 131 131 130 130 129 130 128 124 123 126 130 134 134 133 131 124 129 127 117 115 121 133 133 130 113 47 24 189 201 196 196 199
142 126 114 121 119 113 114 120 122 122 126 125 123 127 127 127 128 129 130 134 139 143 145 146 148 157 163 145 145 153 164 175 170 165 161 158 154 139 6 350 351 319 264 251
121 112 110 122 124 117 117 115 111 109 115 121 124 124 122 120 127 134 142 148 145 143 149 158 166 198 201 169 164 169 178 190 182 179 176 174 174 170 161 107 346 341 343 338
114 114 126 122 116 116 119 119 117 117 118 117 124 128 130 133 141 146 146 140 136 141 154 165 185 225 212 167 163 172 177 184 170 164 165 169 166 160 159 163 174 336 346 355
111 111 120 126 130 131 131 131 131 133 132 128 132 136 139 138 137 135 138 143 145 163 177 181 208 231 189 164 155 161 191 198 170 155 154 146 146 148 144 139 129 10 346 340
131 137 140 142 144 145 145 145 143 142 140 140 143 138 131 127 126 134 145 155 161 170 179 189 213 224 178 166 165 172 178 191 161 147 160 164 157 159 162 163 174 241 301 302
149 150 153 152 152 150 146 143 143 144 145 145 139 135 136 141 151 159 153 137 130 135 197 211 210 201 188 175 167 169 169 170 163 168 170 164 156 153 152 164 186 203 322 358
135 140 144 147 148 147 147 147 147 144 141 140 142 146 150 154 156 152 142 142 154 189 229 218 198 182 184 185 165 160 164 164 162 165 165 161 149 149 156 170 189 209 238 292
138 142 143 143 144 145 147 147 145 144 146 145 143 145 151 159 155 150 152 172 201 205 199 178 170 176 187 186 159 158 168 174 174 164 156 158 163 167 169 181 197 206 212 237
146 147 148 149 149 149 150 150 150 152 152 152 154 162 167 164 156 151 154 197 239 203 184 179 177 187 188 174 154 155 166 174 177 176 173 173 173 176 178 186 202 214 223 243
152 152 153 152 150 151 152 152 153 153 154 158 161 160 158 160 162 165 188 203 208 177 168 178 190 200 187 162 153 162 174 181 183 178 177 176 179 185 192 199 214 224 227 237
153 154 155 156 156 153 150 154 157 159 162 166 167 168 170 173 169 170 208 220 188 181 176 190 203 200 181 164 171 180 189 192 193 191 189 188 191 195 200 208 216 221 224 231
152 155 155 151 145 148 157 165 163 164 166 168 173 173 166 166 186 205 201 187 184 185 190 204 205 198 178 171 182 193 205 206 202 195 193 193 194 198 206 213 219 223 226 231
153 151 149 150 156 165 167 159 155 158 161 168 175 177 177 177 181 193 184 189 189 186 194 208 208 201 185 187 198 206 212 214 210 198 195 197 202 205 211 216 220 225 227 230
153 157 162 167 165 162 160 161 165 168 169 172 180 183 182 179 177 167 174 187 188 188 191 195 197 196 196 202 208 212 215 219 216 211 209 207 210 211 216 220 224 224 227 228
146 147 148 148 152 158 162 166 170 175 177 177 181 185 182 179 177 179 181 183 185 191 196 197 196 198 204 209 213 215 216 216 215 215 213 212 211 214 218 221 223 223 223 224